Location: Gokavaram
(16.9752°N, 81.0696°E)
Time: 20:27:36
(UTC+00:00)

Cosmos 1375 Rocket - Pass Details

Date: 15 May 2026
Orbit: 949 x 1017 km, 65.8° (Epoch: 7 June)

Event Time Altitude Azimuth Distance (km) Brightness Sun altitude
Rises 14:15:21 0° 198° (SSW) 3,641 7.4 -17.4°
Reaches altitude 10° 14:17:53 10° 196° (SSW) 2,705 6.7 -17.9°
Maximum altitude 14:24:13 78° 111° (ESE) 1,006 4.4 -19.3°
Drops below altitude 10° 14:30:40 10° 26° (NNE) 2,758 6.9 -20.6°
Sets 14:33:16 0° 25° (NNE) 3,717 7.6 -21.2°
